FW2285 Weather Reports


Display with metric or nautical units.
time (UTC)temp
F
wind
direction
speed
MPH
gust
MPH
rain 1hr
in
rain 24hr
in
rain mn
in
humidity
%
barometer
mb
20260505051543 66 47 3.0 10.0 0.00 0.00 0.00 26 1005.8
20260505041550 69 280 1.0 8.0 0.00 0.00 0.00 29 1004.7
20260505040048 69 273 1.0 5.0 0.00 0.00 0.00 29 1004.6
20260505034535 69 38 1.0 8.0 0.00 0.00 0.00 35 1004.2
20260505033036 67 44 2.0 7.0 0.00 0.00 0.00 47 1004.1
20260505031541 65 307 0.0 0.0 0.00 0.00 0.00 56 1003.2
20260505030033 65 307 0.0 0.0 0.00 0.00 0.00 55 1003.3
20260505024538 66 306 0.0 0.0 0.00 0.00 0.00 54 1003.3
20260505023032 66 307 0.0 0.0 0.00 0.00 0.00 53 1002.8
20260505021534 67 306 0.0 0.0 0.00 0.00 0.00 52 1002.5
20260505020031 68 306 0.0 0.0 0.00 0.00 0.00 50 1002.3
20260505014539 69 307 0.0 0.0 0.00 0.00 0.00 47 1002.2
20260505013030 70 307 0.0 0.0 0.00 0.00 0.00 46 1002.0
20260505011529 72 306 0.0 0.0 0.00 0.00 0.00 44 1001.7
20260505010029 73 306 0.0 0.0 0.00 0.00 0.00 42 1001.7
20260505004533 74 306 0.0 0.0 0.00 0.00 0.00 41 1001.6
20260505003028 76 306 0.0 1.0 0.00 0.00 0.00 39 1001.4
20260505001529 77 306 0.0 2.0 0.00 0.00 0.00 37 1001.5
20260505000035 77 304 0.0 3.0 0.00 0.00 0.00 36 1001.7
20260504234525 77 240 1.0 3.0 0.00 0.00 0.00 36 1001.5
20260504233025 78 290 1.0 5.0 0.00 0.00 0.00 36 1001.5
20260504231524 79 107 1.0 7.0 0.00 0.00 0.00 34 1001.5
20260504230024 80 260 1.0 6.0 0.00 0.00 0.00 34 1001.5
20260504224524 81 139 1.0 9.0 0.00 0.00 0.00 35 1001.6
20260504223033 81 115 1.0 3.0 0.00 0.00 0.00 32 1001.6
20260504221525 81 253 3.0 6.0 0.00 0.00 0.00 28 1001.5
20260504220021 82 113 1.0 5.0 0.00 0.00 0.00 30 1002.2
20260504214524 83 184 1.0 8.0 0.00 0.00 0.00 27 1001.6
20260504213032 83 248 2.0 7.0 0.00 0.00 0.00 25 1001.7
20260504211523 83 240 2.0 9.0 0.00 0.00 0.00 27 1001.7
20260504210019 82 182 2.0 8.0 0.00 0.00 0.00 30 1001.8
20260504204532 82 122 2.0 8.0 0.00 0.00 0.00 31 1002.0
20260504203020 82 119 1.0 6.0 0.00 0.00 0.00 31 1002.2
20260504201513 82 236 2.0 7.0 0.00 0.00 0.00 34 1002.3
20260504200011 82 260 1.0 6.0 0.00 0.00 0.00 34 1002.4
20260504194509 81 239 1.0 4.0 0.00 0.00 0.00 36 1002.5
20260504193008 81 183 1.0 7.0 0.00 0.00 0.00 30 1002.5
20260504191506 80 248 1.0 7.0 0.00 0.00 0.00 29 1002.5
20260504190005 80 261 2.0 7.0 0.00 0.00 0.00 32 1002.6
20260504184504 80 148 2.0 6.0 0.00 0.00 0.00 31 1002.7
20260504183002 78 109 2.0 8.0 0.00 0.00 0.00 31 1002.8
20260504181604 78 212 1.0 9.0 0.00 0.00 0.00 37 1002.8
20260504180059 77 208 2.0 7.0 0.00 0.00 0.00 33 1002.9
20260504174611 77 180 2.0 4.0 0.00 0.00 0.00 39 1003.1
20260504173054 76 271 3.0 10.0 0.00 0.00 0.00 38 1003.2
20260504171553 76 138 2.0 7.0 0.00 0.00 0.00 36 1003.3
20260504090112 56 100 0.0 0.0 0.00 0.00 0.00 54 1005.7
20260504081554 58 100 0.0 0.0 0.00 0.00 0.00 53 1005.8